Weather History for Glendive, MT

Change the Weather History Date:

Tuesday, December 4, 2012

  Actual Average Record
Temperature  
Mean Temperature 28 °F -  
Max Temperature 39 °F 33 °F 57 °F (2007)
Min Temperature 17 °F 15 °F -9 °F (2005)
Degree Days  
Heating Degree Days 37    
Moisture  
Dew Point 21 °F    
Average Humidity 66    
Maximum Humidity 86    
Minimum Humidity 52    
Precipitation  
Precipitation 0.00 in - - ()
Sea Level Pressure  
Sea Level Pressure 30.03 in    
Wind  
Wind Speed 9 mph (East)    
Max Wind Speed 16 mph    
Max Gust Speed -    
Visibility 10 miles    
Events      
Averages and records for this station are not official NWS values.
T = Trace of Precipitation, MM = Missing Value Source: NWS Daily Summary

Daily Weather History Graph

Daily Weather History Graph

Search for Another Location

Airport:

Trip Planner

Search our weather history database for the weather conditions in past years. The results will help you decide how hot, cold, wet, or windy it might be!

Date:

Astronomy

Dec. 04, 2012 Rise Set
Actual Time 7:28 AM MST 4:10 PM MST
Civil Twilight 6:53 AM MST 4:45 PM MST
Nautical Twilight 6:15 AM MST 5:23 PM MST
Astronomical Twilight 5:38 AM MST 6:00 PM MST
Moon 10:16 PM MST (12/4) 11:10 AM MST (12/4)
Length of Visible Light 9h 51m
Length of Day
8h 41m
Waning Gibbous, 69% of the Moon is Illuminated
Dec 4
Waning Gibbous
Dec 6
Last Quarter
Dec 13
New
Dec 19
First Quarter
Dec 28
Full

Hourly Weather History & Observations

Time (MST) Temp. Windchill Dew Point Humidity Pressure Visibility Wind Dir Wind Speed Gust Speed Precip Events Conditions
12:15 AM 39.2 °F 31.2 °F 23.0 °F 52% 30.02 in 10.0 mi West 13.8 mph - N/A   Partly Cloudy
12:35 AM 37.4 °F 28.9 °F 21.2 °F 52% 30.02 in 10.0 mi West 13.8 mph - N/A   Clear
12:55 AM 37.4 °F 28.9 °F 21.2 °F 52% 30.02 in 10.0 mi West 13.8 mph - N/A   Clear
1:15 AM 37.4 °F 28.5 °F 21.2 °F 52% 30.03 in 10.0 mi West 15.0 mph - N/A   Clear
1:35 AM 37.4 °F 28.2 °F 21.2 °F 52% 30.03 in 10.0 mi West 16.1 mph - N/A   Clear
1:55 AM 35.6 °F 27.1 °F 21.2 °F 56% 30.04 in 10.0 mi West 12.7 mph - N/A   Clear
2:35 AM 33.8 °F 25.3 °F 21.2 °F 60% 30.06 in 10.0 mi West 11.5 mph - N/A   Clear
2:55 AM 33.8 °F 25.3 °F 21.2 °F 60% 30.06 in 10.0 mi West 11.5 mph - N/A   Clear
3:16 AM 33.8 °F 24.8 °F 21.2 °F 60% 30.06 in 10.0 mi West 12.7 mph - N/A   Clear
3:35 AM 33.8 °F 28.6 °F 21.2 °F 60% 30.07 in 10.0 mi NW 5.8 mph - N/A   Clear
3:55 AM 32.0 °F 28.7 °F 21.2 °F 64% 30.08 in 10.0 mi NNW 3.5 mph - N/A   Clear
4:15 AM 33.8 °F 28.6 °F 21.2 °F 60% 30.09 in 10.0 mi WNW 5.8 mph - N/A   Clear
4:36 AM 33.8 °F 29.6 °F 21.2 °F 60% 30.09 in 10.0 mi WNW 4.6 mph - N/A   Clear
4:55 AM 35.6 °F 30.7 °F 21.2 °F 56% 30.10 in 10.0 mi West 5.8 mph - N/A   Clear
5:15 AM 26.6 °F 19.1 °F 17.6 °F 69% 30.10 in 10.0 mi ENE 6.9 mph - N/A   Clear
5:35 AM 21.2 °F 10.9 °F 17.6 °F 86% 30.10 in 10.0 mi ENE 9.2 mph - N/A   Clear
5:55 AM 21.2 °F 13.6 °F 15.8 °F 80% 30.10 in 10.0 mi ENE 5.8 mph - N/A   Clear
6:15 AM 21.2 °F 13.6 °F 15.8 °F 80% 30.11 in 10.0 mi ENE 5.8 mph - N/A   Clear
6:35 AM 19.4 °F 10.4 °F 15.8 °F 86% 30.11 in 10.0 mi ENE 6.9 mph - N/A   Clear
6:55 AM 19.4 °F 8.6 °F 15.8 °F 86% 30.12 in 10.0 mi NE 9.2 mph - N/A   Clear
7:35 AM 17.6 °F 9.3 °F 14.0 °F 86% 30.12 in 10.0 mi ENE 5.8 mph - N/A   Clear
7:55 AM 17.6 °F 7.3 °F 14.0 °F 86% 30.11 in 10.0 mi NE 8.1 mph - N/A   Clear
8:15 AM 19.4 °F 11.5 °F 14.0 °F 80% 30.12 in 10.0 mi ENE 5.8 mph - N/A   Clear
8:35 AM 19.4 °F 10.4 °F 15.8 °F 86% 30.11 in 10.0 mi ENE 6.9 mph - N/A   Clear
8:55 AM 21.2 °F 12.6 °F 15.8 °F 80% 30.11 in 10.0 mi ENE 6.9 mph - N/A   Clear
9:15 AM 21.2 °F 11.7 °F 15.8 °F 80% 30.12 in 10.0 mi ENE 8.1 mph - N/A   Clear
9:35 AM 21.2 °F 14.9 °F 15.8 °F 80% 30.12 in 10.0 mi ENE 4.6 mph - N/A   Clear
9:55 AM 23.0 °F 18.4 °F 17.6 °F 80% 30.13 in 10.0 mi ENE 3.5 mph - N/A   Clear
10:15 AM 26.6 °F 21.2 °F 19.4 °F 74% 30.11 in 10.0 mi East 4.6 mph - N/A   Clear
10:35 AM 26.6 °F - 19.4 °F 74% 30.11 in 10.0 mi Calm Calm - N/A   Clear
10:55 AM 30.2 °F 26.7 °F 19.4 °F 64% 30.11 in 10.0 mi SSE 3.5 mph - N/A   Clear
11:15 AM 32.0 °F - 21.2 °F 64% 30.11 in 10.0 mi Calm Calm - N/A   Clear
11:35 AM 33.8 °F - 21.2 °F 60% 30.09 in 10.0 mi Calm Calm - N/A   Clear
11:55 AM 33.8 °F 29.6 °F 21.2 °F 60% 30.08 in 10.0 mi East 4.6 mph - N/A   Clear
12:15 PM 32.0 °F 27.5 °F 21.2 °F 64% 30.07 in 10.0 mi ENE 4.6 mph - N/A   Clear
12:35 PM 32.0 °F 27.5 °F 21.2 °F 64% 30.06 in 10.0 mi ENE 4.6 mph - N/A   Clear
12:55 PM 33.8 °F 28.6 °F 21.2 °F 60% 30.05 in 10.0 mi ENE 5.8 mph - N/A   Clear
1:15 PM 33.8 °F 27.7 °F 21.2 °F 60% 30.05 in 10.0 mi ENE 6.9 mph - N/A   Clear
1:35 PM 33.8 °F 28.6 °F 23.0 °F 65% 30.04 in 10.0 mi ENE 5.8 mph - N/A   Clear
1:55 PM 33.8 °F 27.7 °F 21.2 °F 60% 30.02 in 10.0 mi ENE 6.9 mph - N/A   Clear
2:15 PM 33.8 °F 27.0 °F 23.0 °F 65% 30.01 in 10.0 mi NE 8.1 mph - N/A   Clear
2:35 PM 33.8 °F 27.0 °F 23.0 °F 65% 30.00 in 10.0 mi NE 8.1 mph - N/A   Clear
2:55 PM 33.8 °F 28.6 °F 23.0 °F 65% 30.00 in 10.0 mi ENE 5.8 mph - N/A   Clear
3:15 PM 33.8 °F 27.0 °F 24.8 °F 70% 29.99 in 10.0 mi NE 8.1 mph - N/A   Partly Cloudy
3:35 PM 33.8 °F 28.6 °F 24.8 °F 70% 29.99 in 10.0 mi NE 5.8 mph - N/A   Mostly Cloudy
3:55 PM 32.0 °F 25.6 °F 24.8 °F 75% 29.99 in 10.0 mi NE 6.9 mph - N/A   Overcast
4:15 PM 32.0 °F 26.4 °F 24.8 °F 75% 29.99 in 10.0 mi NE 5.8 mph - N/A   Overcast
4:55 PM 30.2 °F 25.4 °F 24.8 °F 80% 29.98 in 10.0 mi NE 4.6 mph - N/A   Partly Cloudy
5:35 PM 32.0 °F 27.5 °F 24.8 °F 75% 29.97 in 10.0 mi ENE 4.6 mph - N/A   Clear
5:55 PM 33.8 °F 30.8 °F 24.8 °F 70% 29.98 in 10.0 mi East 3.5 mph - N/A   Clear
6:15 PM 33.8 °F 29.6 °F 23.0 °F 65% 29.97 in 10.0 mi East 4.6 mph - N/A   Clear
6:35 PM 33.8 °F 29.6 °F 23.0 °F 65% 29.97 in 10.0 mi SE 4.6 mph - N/A   Clear
6:55 PM 35.6 °F 30.7 °F 23.0 °F 60% 29.97 in 10.0 mi SE 5.8 mph - N/A   Clear
7:15 PM 35.6 °F 30.7 °F 21.2 °F 56% 29.96 in 10.0 mi SE 5.8 mph - N/A   Clear
7:35 PM 35.6 °F 31.7 °F 21.2 °F 56% 29.96 in 10.0 mi SE 4.6 mph - N/A   Clear
7:55 PM 35.6 °F 30.7 °F 23.0 °F 60% 29.95 in 10.0 mi SSE 5.8 mph - N/A   Clear
8:15 PM 35.6 °F 30.7 °F 21.2 °F 56% 29.95 in 10.0 mi SSE 5.8 mph - N/A   Clear
8:35 PM 35.6 °F 31.7 °F 23.0 °F 60% 29.95 in 10.0 mi SSE 4.6 mph - N/A   Clear
8:55 PM 33.8 °F 27.7 °F 21.2 °F 60% 29.95 in 10.0 mi SSW 6.9 mph - N/A   Clear
9:15 PM 33.8 °F 27.7 °F 21.2 °F 60% 29.95 in 10.0 mi SSW 6.9 mph - N/A   Clear
9:35 PM 35.6 °F 28.0 °F 21.2 °F 56% 29.94 in 10.0 mi South 10.4 mph - N/A   Clear
9:55 PM 35.6 °F 28.0 °F 21.2 °F 56% 29.94 in 10.0 mi South 10.4 mph - N/A   Clear
10:15 PM 35.6 °F 28.6 °F 21.2 °F 56% 29.93 in 10.0 mi South 9.2 mph - N/A   Clear
10:35 PM 35.6 °F 28.6 °F 21.2 °F 56% 29.92 in 10.0 mi South 9.2 mph - N/A   Clear
10:55 PM 35.6 °F 29.9 °F 21.2 °F 56% 29.92 in 10.0 mi South 6.9 mph - N/A   Clear
11:15 PM 35.6 °F 29.9 °F 21.2 °F 56% 29.92 in 10.0 mi South 6.9 mph - N/A   Clear
11:35 PM 35.6 °F 29.2 °F 21.2 °F 56% 29.91 in 10.0 mi South 8.1 mph - N/A   Clear
11:55 PM 35.6 °F 28.6 °F 21.2 °F 56% 29.90 in 10.0 mi South 9.2 mph - N/A   Clear